Regional Weather Roundup
Issued by NWS

Home | Current Version | Previous Version | Graphics & Text | Print | Product List | Glossary Off
Versions: 1 2 3 4 5 6 7 8 9 10 11 12 13 14 15 16 17 18 19 20 21 22 23 24 25 26 27 28 29 30 31 32 33 34 35 36 37 38 39 40 41 42 43 44 45 46 47 48 49 50

000
ASUS43 KDTX 290310
RWRMI
MICHIGAN HOURLY REGIONAL WEATHER ROUNDUP
NATIONAL WEATHER SERVICE DETROIT/PONTIAC MI
1100 PM EDT THU AUG 28 2014

NOTE: "FAIR" INDICATES FEW OR NO CLOUDS BELOW 12,000 FEET WITH NO
SIGNIFICANT WEATHER AND/OR OBSTRUCTION TO VISIBILITY.

MIZ047>049-052>055-059>063-066>070-074>076-081>083-290400-
SOUTHEAST LOWER MICHIGAN

CITY           SKY/WX    TMP DP  RH WIND       PRES   REMARKS
ADRIAN         PTCLDY    62  56  80 SE5       30.14S
ALMA           CLOUDY    60  55  83 E6        30.14S
ANN ARBOR      PTCLDY    56  51  84 CALM      30.13S
BAD AXE        CLEAR     50  49  98 CALM      30.16S
DETROIT CITY   CLEAR     64  52  64 E6        30.15S
DETROIT        MOCLDY    64  54  69 CALM      30.14F
FLINT          PTCLDY    63  53  70 E7        30.15R
GROSSE ILE     PTCLDY    64  55  72 E3        30.13S
HILLSDALE      CLEAR     63  59  87 SE6       30.13S
HOWELL         MOCLDY    59  55  84 SE5       30.14R

CITY           SKY/WX    TMP DP  RH WIND       PRES   REMARKS
JACKSON        CLEAR     63  57  81 SE7       30.13S
LAMBERTVILLE   PTCLDY    63  55  77 SE3       30.14S
LANSING        MOCLDY    61  53  75 E5        30.13S
LAPEER         NOT AVBL
MASON          PTCLDY    59  53  80 SE5       30.14R
MONROE         PTCLDY    59  54  82 CALM      30.12S
MT. CLEMENS    PTCLDY    59  48  67 E7        30.14S
PONTIAC        MOCLDY    61  50  67 E7        30.14S
PORT HOPE        N/A     54  50  86 CALM      30.14F
PORT HURON     PTCLDY    50  48  93 CALM      30.16S
TRI CITIES     MOCLDY    61  53  75 E9        30.15S
YPSILANTI      PTCLDY    64  56  75 CALM      30.14F
$$
MIZ043>046-050>051-056>058-064>065-071>073-077>080-290400-
SOUTHWEST LOWER MICHIGAN

CITY           SKY/WX    TMP DP  RH WIND       PRES   REMARKS
BATTLE CREEK   MOCLDY    66  53  63 E5        30.12S
BENTON HARBOR  MOCLDY    67  59  75 E7        30.07F
BIG RAPIDS     CLOUDY    62  57  83 CALM      30.12S
COLDWATER      PTCLDY    65  58  78 E3        30.11S
HOLLAND        MOCLDY    65  54  67 E6        30.10S
GRAND RAPIDS   CLOUDY    63  56  78 E6        30.12S
KALAMAZOO      MOCLDY    66  55  67 E3        30.12S
MARSHALL       PTCLDY    61  54  77 CALM      30.11F
MUSKEGON       MOCLDY    65  53  65 SE6       30.10S
$$
MIZ016>042-290400-
NORTHERN LOWER MICHIGAN

CITY           SKY/WX    TMP DP  RH WIND       PRES   REMARKS
ALPENA         MOCLDY    52  47  83 CALM      30.15S
BEAVER ISLAND  MOCLDY    53  52  97 CALM      30.12F
CADILLAC       MOCLDY    57  52  84 CALM      30.12S
CHARLEVOIX     MOCLDY    57  52  84 CALM      30.14F
FRANKFORT      MOCLDY    60  55  83 CALM      30.10F
GAYLORD        PTCLDY    56  49  77 CALM      30.13F
GRAYLING       MOCLDY    50  50  99 CALM      30.14S
HARBOR SPRINGS MOCLDY    55  49  80 NE3       30.12F
HOUGHTON LAKE  MOCLDY    56  52  86 SE6       30.14S
MANISTEE       CLOUDY    61  54  77 SE5       30.10F
OSCODA         PTCLDY    51  49  92 CALM      30.15S
PELLSTON       MOCLDY    49  48  97 CALM      30.13F
TRAVERSE CITY  PTCLDY    58  53  84 CALM      30.10F
$$
MIZ007>008-015-290400-
EASTERN UPPER MICHIGAN

CITY           SKY/WX    TMP DP  RH WIND       PRES   REMARKS
KINROSS        MOCLDY    57  50  77 CALM      30.12F
MACKINAC ISLAN MOCLDY    53  48  82 S3        30.12F
NEWBERRY       MOCLDY    52  48  87 W8        30.12S
S. S. MARIE    MOCLDY    55  49  80 CALM      30.11F
$$
MIZ004>006-011>014-085-290400-
CENTRAL UPPER MICHIGAN

CITY           SKY/WX    TMP DP  RH WIND       PRES   REMARKS
MANISTIQUE     MOCLDY    51  50  95 CALM      30.09F
ESCANABA       CLOUDY    63  52  67 SE5       30.09S
MENOMINEE      CLOUDY    63  54  72 S5        30.07F
SAWYER-GWINN   MOCLDY    57  52  83 S7        30.09F
$$
MIZ001>003-009>011-084-290400-
WESTERN UPPER MICHIGAN

CITY           SKY/WX    TMP DP  RH WIND       PRES   REMARKS
IRON MOUNTAIN  CLOUDY    61  56  83 SE7       30.06F
HOUGHTON       MOCLDY    56  51  84 E9        30.03F
COPPER HARBOR    N/A     59  49  69 SW8       30.04F
$$

ABBREVIATIONS USED IN REMARKS
   TC - TEMPERATURE IN CELSIUS
  WCI - WIND CHILL INDEX
   HX - HEAT INDEX
  VSB - VISIBILITY




USA.gov is the U.S. government's official web portal to all federal, state and local government web resources and services.